Location: Brest
(52.1000°N, 23.7000°E)
Time: 18:06:25
(UTC+03:00)

Genesis I - Visible Passes

Search period start: 18 September 2018 00:00
Search period end: 28 September 2018 00:00
Orbit: 481 x 546 km, 64.5° (Epoch: 18 September)

Date Brightness Start Highest point End Pass type
(mag) Time Alt. Az. Time Alt. Az. Time Alt. Az.
18 Sep 6.3 00:32:53 10° NNW 00:33:55 15° NNW 00:33:55 15° NNW visible
18 Sep 5.6 20:58:26 10° WNW 21:01:39 22° NNW 21:04:55 10° NNE visible
18 Sep 6.0 22:38:20 10° NW 22:40:40 15° N 22:42:42 11° NNE visible
19 Sep 6.2 00:16:27 10° NNW 00:17:37 15° NNW 00:17:37 15° NNW visible
19 Sep 5.6 20:42:00 10° WNW 20:45:13 22° NNW 20:48:28 10° NNE visible
19 Sep 6.0 22:21:54 10° NW 22:24:14 15° N 22:26:25 10° NNE visible
20 Sep 6.1 00:00:01 10° NNW 00:01:19 16° NNW 00:01:19 16° NNW visible
20 Sep 5.6 20:25:34 10° WNW 20:28:47 22° NNW 20:32:01 10° NNE visible
20 Sep 6.0 22:05:28 10° NW 22:07:48 15° N 22:10:07 10° NE visible
20 Sep 6.0 23:43:33 10° NNW 23:45:04 17° N 23:45:04 17° N visible
21 Sep 5.6 20:09:08 10° WNW 20:12:20 22° NNW 20:15:34 10° NNE visible
21 Sep 5.9 21:49:02 10° NW 21:51:21 15° N 21:53:41 10° NE visible
21 Sep 5.9 23:27:06 10° NNW 23:28:49 18° N 23:28:49 18° N visible
22 Sep 5.5 19:52:42 10° WNW 19:55:54 22° NNW 19:59:07 10° NNE visible
22 Sep 5.9 21:32:35 10° NW 21:34:54 15° N 21:37:14 10° NE visible
22 Sep 5.8 23:10:39 10° NNW 23:12:36 19° N 23:12:36 19° N visible
23 Sep 5.9 21:16:08 10° NW 21:18:28 15° N 21:20:49 10° NE visible
23 Sep 5.6 22:54:13 10° NNW 22:56:23 20° N 22:56:23 20° N visible
24 Sep 5.8 20:59:42 10° NW 21:02:01 15° N 21:04:22 10° NE visible
24 Sep 5.5 22:37:46 10° NNW 22:40:11 21° N 22:40:11 21° N visible
25 Sep 5.8 20:43:15 10° NW 20:45:35 15° N 20:47:55 10° NE visible
25 Sep 5.3 22:21:19 10° NNW 22:24:00 22° N 22:24:00 22° N visible
25 Sep 6.6 23:58:43 10° NW 23:58:55 11° NW 23:58:55 11° NW visible
26 Sep 5.8 20:26:48 10° NW 20:29:08 15° N 20:31:28 10° NE visible
26 Sep 5.2 22:04:52 10° NNW 22:07:49 22° NNE 22:07:49 22° NNE visible
26 Sep 6.4 23:42:16 10° NW 23:42:45 13° NW 23:42:45 13° NW visible
27 Sep 5.7 20:10:22 10° NW 20:12:42 15° N 20:15:02 10° NE visible
27 Sep 5.1 21:48:24 10° NNW 21:51:40 22° NNE 21:51:40 22° NNE visible
27 Sep 6.2 23:25:49 10° NW 23:26:36 15° NW 23:26:36 15° NW visible
